Location: *
(49.9853°N, 3.5569°E)
Time: 16:51:10
(UTC+00:00)

Cosmos 2237 Rocket - Pass Details

Date: 22 September 2019
Orbit: 833 x 852 km, 71.0° (Epoch: 19 October)

Event Time Altitude Azimuth Distance (km) Brightness Sun altitude
Rises 18:41:11 0° 330° (NNW) 3,427 6.0 -9.8°
Reaches altitude 10° 18:43:39 10° 330° (NNW) 2,489 5.3 -10.2°
Maximum altitude 18:49:23 82° 243° (WSW) 866 2.3 -11.1°
Drops below altitude 10° 18:55:04 10° 157° (SSE) 2,474 4.3 -12.0°
Enters shadow 18:57:11 - 156° (SSE) 3,283 4.9 -12.3°
